Oelwein, IA

9:10 AM CST on December 07, 2019 (GMT -0600)
Oelwein Municipal

Weather History for KOLZ - October, 2019

Change the Weather History Date:

Friday, October 18, 2019

  Actual Average Record
Temperature  
Mean Temperature 54 °F -  
Max Temperature 68 °F 56 °F 86 °F (1953)
Min Temperature 41 °F 36 °F 15 °F (1952)
Degree Days  
Heating Degree Days 10    
Growing Degree Days 4 (Base 50)    
Moisture  
Dew Point 44 °F    
Average Humidity 73    
Maximum Humidity 93    
Minimum Humidity 43    
Precipitation  
Precipitation 0.00 in - - ()
Sea Level Pressure  
Sea Level Pressure 29.83 in    
Wind  
Wind Speed 14 mph (SSE)    
Max Wind Speed 29 mph    
Max Gust Speed 39 mph    
Visibility 10 miles    
Events      
Averages and records for this station are not official NWS values.
T = Trace of Precipitation, MM = Missing Value Source: NWS Daily Summary

Daily Weather History Graph

Daily Weather History Graph

Search for Another Location

Airport or City:

Astronomy

Oct. 18, 2019 Rise Set
Actual Time 7:24 AM CDT 6:21 PM CDT
Civil Twilight 6:55 AM CDT 6:49 PM CDT
Nautical Twilight 6:22 AM CDT 7:22 PM CDT
Astronomical Twilight 5:50 AM CDT 7:54 PM CDT
Moon 9:32 PM CDT (10/18) 12:02 PM CDT (10/18)
Length of Visible Light 11h 53m
Length of Day
10h 56m
Waning Gibbous, 78% of the Moon is Illuminated
Oct 18
Waning Gibbous
Oct 21
Last Quarter
Oct 27
New
Nov 4
First Quarter
Nov 12
Full

Hourly Weather History & Observations

Time (CDT) Temp. Windchill Dew Point Humidity Pressure Visibility Wind Dir Wind Speed Gust Speed Precip Events Conditions
12:15 AM 41.0 °F 35.8 °F 39.2 °F 93% 29.96 in 10.0 mi SE 8.1 mph - N/A   Clear
12:35 AM 41.0 °F 34.7 °F 39.2 °F 93% 29.97 in 10.0 mi SSE 10.4 mph - N/A   Clear
12:55 AM 41.0 °F 35.2 °F 39.2 °F 93% 29.96 in 10.0 mi SSE 9.2 mph - N/A   Clear
1:15 AM 42.8 °F 37.5 °F 39.2 °F 87% 29.96 in 10.0 mi SE 9.2 mph - N/A   Clear
1:35 AM 42.8 °F 37.0 °F 39.2 °F 87% 29.96 in 10.0 mi SSE 10.4 mph - N/A   Clear
1:55 AM 42.8 °F 37.5 °F 39.2 °F 87% 29.96 in 10.0 mi SSE 9.2 mph - N/A   Clear
2:15 AM 42.8 °F 37.0 °F 39.2 °F 87% 29.95 in 10.0 mi SE 10.4 mph - N/A   Clear
2:35 AM 42.8 °F 36.6 °F 39.2 °F 87% 29.95 in 10.0 mi SE 11.5 mph - N/A   Clear
2:55 AM 42.8 °F 36.2 °F 39.2 °F 87% 29.94 in 10.0 mi SE 12.7 mph - N/A   Clear
3:15 AM 42.8 °F 37.0 °F 41.0 °F 93% 29.93 in 10.0 mi SE 10.4 mph - N/A   Clear
3:35 AM 42.8 °F 37.0 °F 41.0 °F 93% 29.93 in 10.0 mi SE 10.4 mph - N/A   Clear
3:55 AM 42.8 °F 36.6 °F 41.0 °F 93% 29.92 in 10.0 mi SE 11.5 mph - N/A   Clear
4:15 AM 42.8 °F 36.6 °F 41.0 °F 93% 29.92 in 10.0 mi SE 11.5 mph - N/A   Clear
4:35 AM 42.8 °F 36.6 °F 41.0 °F 93% 29.92 in 10.0 mi SE 11.5 mph - N/A   Clear
4:55 AM 42.8 °F 35.8 °F 41.0 °F 93% 29.92 in 10.0 mi SE 13.8 mph - N/A   Clear
5:15 AM 42.8 °F 36.2 °F 41.0 °F 93% 29.91 in 10.0 mi SE 12.7 mph - N/A   Clear
5:35 AM 42.8 °F 36.2 °F 41.0 °F 93% 29.91 in 10.0 mi SE 12.7 mph - N/A   Clear
5:55 AM 42.8 °F 35.8 °F 41.0 °F 93% 29.90 in 10.0 mi SE 13.8 mph - N/A   Clear
6:15 AM 42.8 °F 35.8 °F 41.0 °F 93% 29.90 in 10.0 mi SE 13.8 mph 21.9 mph N/A   Clear
6:35 AM 42.8 °F 35.8 °F 41.0 °F 93% 29.90 in 10.0 mi SE 13.8 mph - N/A   Clear
6:55 AM 42.8 °F 35.8 °F 41.0 °F 93% 29.89 in 10.0 mi SE 13.8 mph - N/A   Clear
7:15 AM 42.8 °F 35.8 °F 41.0 °F 93% 29.89 in 10.0 mi SE 13.8 mph - N/A   Clear
7:35 AM 42.8 °F 36.2 °F 41.0 °F 93% 29.89 in 10.0 mi SE 12.7 mph 19.6 mph N/A   Clear
7:55 AM 42.8 °F 36.6 °F 41.0 °F 93% 29.89 in 10.0 mi SE 11.5 mph 18.4 mph N/A   Clear
8:15 AM 42.8 °F 36.2 °F 41.0 °F 93% 29.89 in 10.0 mi SE 12.7 mph - N/A   Clear
8:35 AM 44.6 °F 38.1 °F 41.0 °F 87% 29.89 in 10.0 mi SE 13.8 mph - N/A   Clear
8:55 AM 46.4 °F 39.8 °F 42.8 °F 87% 29.89 in 10.0 mi SE 16.1 mph 24.2 mph N/A   Clear
9:15 AM 48.2 °F - 42.8 °F 82% 29.89 in 10.0 mi SSE 15.0 mph 25.3 mph N/A   Clear
9:35 AM 50.0 °F - 42.8 °F 76% 29.89 in 10.0 mi SSE 19.6 mph 26.5 mph N/A   Clear
9:55 AM 51.8 °F - 42.8 °F 71% 29.89 in 10.0 mi SSE 20.7 mph - N/A   Clear
10:15 AM 53.6 °F - 44.6 °F 72% 29.88 in 10.0 mi SSE 17.3 mph 25.3 mph N/A   Clear
10:35 AM 53.6 °F - 44.6 °F 72% 29.87 in 10.0 mi SSE 19.6 mph 31.1 mph N/A   Clear
10:55 AM 55.4 °F - 44.6 °F 67% 29.86 in 10.0 mi SSE 19.6 mph 25.3 mph N/A   Clear
11:15 AM 57.2 °F - 44.6 °F 63% 29.86 in 10.0 mi SSE 20.7 mph - N/A   Clear
11:35 AM 57.2 °F - 46.4 °F 67% 29.85 in 10.0 mi SSE 23.0 mph - N/A   Clear
11:55 AM 59.0 °F - 46.4 °F 63% 29.85 in 10.0 mi SSE 16.1 mph 26.5 mph N/A   Clear
12:15 PM 60.8 °F - 46.4 °F 59% 29.84 in 10.0 mi SSE 19.6 mph 27.6 mph N/A   Clear
12:35 PM 60.8 °F - 46.4 °F 59% 29.83 in 10.0 mi SSE 23.0 mph 31.1 mph N/A   Clear
12:55 PM 62.6 °F - 48.2 °F 59% 29.82 in 10.0 mi SSE 21.9 mph 28.8 mph N/A   Clear
1:15 PM 64.4 °F - 48.2 °F 56% 29.81 in 10.0 mi SSE 21.9 mph - N/A   Clear
1:35 PM 64.4 °F - 48.2 °F 56% 29.80 in 10.0 mi SSE 23.0 mph 31.1 mph N/A   Clear
1:55 PM 66.2 °F - 46.4 °F 49% 29.78 in 10.0 mi SSE 21.9 mph 32.2 mph N/A   Clear
2:15 PM 66.2 °F - 46.4 °F 49% 29.77 in 10.0 mi South 24.2 mph 29.9 mph N/A   Clear
2:35 PM 66.2 °F - 44.6 °F 46% 29.76 in 10.0 mi SSE 24.2 mph 39.1 mph N/A   Clear
2:55 PM 66.2 °F - 44.6 °F 46% 29.75 in 10.0 mi South 23.0 mph 29.9 mph N/A   Clear
3:15 PM 66.2 °F - 44.6 °F 46% 29.74 in 10.0 mi SSE 21.9 mph 32.2 mph N/A   Clear
3:35 PM 68.0 °F - 44.6 °F 43% 29.73 in 10.0 mi SSE 28.8 mph 36.8 mph N/A   Clear
3:55 PM 66.2 °F - 42.8 °F 43% 29.72 in 10.0 mi South 24.2 mph 33.4 mph N/A   Clear
4:15 PM 68.0 °F - 44.6 °F 43% 29.72 in 10.0 mi SSE 20.7 mph 31.1 mph N/A   Clear
4:35 PM 66.2 °F - 44.6 °F 46% 29.71 in 10.0 mi SSE 26.5 mph 38.0 mph N/A   Clear
4:55 PM 66.2 °F - 44.6 °F 46% 29.71 in 10.0 mi SSE 24.2 mph 31.1 mph N/A   Clear
5:15 PM 64.4 °F - 44.6 °F 49% 29.71 in 10.0 mi SSE 20.7 mph 27.6 mph N/A   Clear
5:35 PM 64.4 °F - 44.6 °F 49% 29.72 in 10.0 mi SSE 18.4 mph 25.3 mph N/A   Clear
5:55 PM 62.6 °F - 44.6 °F 52% 29.71 in 10.0 mi SSE 21.9 mph 31.1 mph N/A   Clear
6:15 PM 60.8 °F - 44.6 °F 55% 29.71 in 10.0 mi SSE 20.7 mph 32.2 mph N/A   Clear
6:35 PM 60.8 °F - 44.6 °F 55% 29.72 in 10.0 mi SSE 19.6 mph - N/A   Clear
6:55 PM 59.0 °F - 44.6 °F 59% 29.72 in 10.0 mi SSE 18.4 mph 25.3 mph N/A   Clear
7:15 PM 57.2 °F - 44.6 °F 63% 29.72 in 10.0 mi SSE 15.0 mph 21.9 mph N/A   Clear
7:35 PM 57.2 °F - 46.4 °F 67% 29.73 in 10.0 mi SSE 17.3 mph - N/A   Clear
7:55 PM 57.2 °F - 46.4 °F 67% 29.73 in 10.0 mi SSE 17.3 mph - N/A   Clear
8:15 PM 57.2 °F - 46.4 °F 67% 29.73 in 10.0 mi SSE 17.3 mph 24.2 mph N/A   Clear
8:35 PM 55.4 °F - 46.4 °F 72% 29.72 in 10.0 mi SSE 19.6 mph 27.6 mph N/A   Clear
8:55 PM 55.4 °F - 44.6 °F 67% 29.72 in 10.0 mi SSE 19.6 mph 25.3 mph N/A   Clear
9:15 PM 55.4 °F - 44.6 °F 67% 29.73 in 10.0 mi SSE 17.3 mph 25.3 mph N/A   Clear
9:35 PM 55.4 °F - 46.4 °F 72% 29.75 in 10.0 mi South 13.8 mph 19.6 mph N/A   Clear
9:55 PM 53.6 °F - 46.4 °F 77% 29.75 in 10.0 mi SSE 15.0 mph - N/A   Clear
10:15 PM 53.6 °F - 46.4 °F 77% 29.75 in 10.0 mi SSE 11.5 mph 17.3 mph N/A   Clear
10:35 PM 51.8 °F - 46.4 °F 82% 29.75 in 10.0 mi SSE 11.5 mph - N/A   Clear
10:55 PM 51.8 °F - 46.4 °F 82% 29.75 in 10.0 mi SSE 11.5 mph - N/A   Clear
11:15 PM 50.0 °F - 46.4 °F 87% 29.75 in 10.0 mi SSE 10.4 mph - N/A   Clear
11:35 PM 50.0 °F - 46.4 °F 87% 29.75 in 10.0 mi SSE 11.5 mph - N/A   Partly Cloudy
11:55 PM 50.0 °F - 46.4 °F 87% 29.75 in 10.0 mi SSE 9.2 mph - N/A   Clear